sat.trackr.live / text

‹ back to catalog

STARLINK-4337

NORAD 53053 · 2022-077L

PAYLOAD ACTIVE UNKNOWN

§ Identity

Operator
Country
US
Launch date
2022-07-11
Launch site
AFWTR
Launch vehicle
Mass (kg)
RCS (m²)

Purposes: comms

External: N2YO · Heavens-Above · Gunter

§ Orbital elements

Epoch: 2026-05-25T01:27:14.868000Z

Period
95.64 min
Inclination
97.4487°
Eccentricity
0.0002279
Mean motion
15.05664395 rev/d
Perigee alt
547.9 km
Apogee alt
551.0 km
Semi-major
6,927.6 km
B*
-1.7363e-4
RAAN
324.9387°
Arg perigee
72.7806°
Mean anomaly
287.3670°
Rev number
21,239

§ Raw data

STARLINK-43371 53053U 22077L   26145.06058875 -.00002564  00000+0 -17363-3 0  99922 53053  97.4487 324.9387 0002279  72.7806 287.3670 15.05664395212397

JSON: /api/v1/satellites/53053 · /tle

For live sub-satellite position, see the globe view (requires WebGL).

§ Visibility from observer

Set your observer location to see the next 7 days of passes ≥ 10°. The values pass through the URL so the page stays shareable.

No JS? Fill the form by hand. The geolocation button needs JavaScript.